Airfield :
LOGIN :

Register | Disclaimer

   EN    FR    IT 

 










Legend :    VFR   Marginal VFR   IFR   Intensive IFR   Very Intensive IFR
Visi :
Ceiling :
>= 8 km
>= 3000ft
5 to 8 km
1000 to 3000 ft
1500m to 5 km
500 to 1000 ft
800 to 1500m
200 to 500 ft
< 800m
< 200 ft
Symbols :   Thunderstorms  Fog  Heavy snow  Heavy precipitations  Wind > 20 kt
SIGMETs :     Misc.  Thunderstorms  Icing  Turbulence  Mountain Waves  Volcanic Ashes






- Airport Elevation : 138 ft
- IATA code : RLG


ETNL - Rostock Laage

CURRENT METAR :
  • 250720Z 21003KT 2200 BR SCT003 M00/M01 Q0999 YLO YLO

EXPIRED METARs :
  • 250620Z 22004KT 7000 BKN006 00/M00 Q0998 YLO YLO
  • 250520Z 26004KT 7000 BKN006 01/M00 Q0998 YLO YLO

TAF TAF ETNL
Valid from the 25 at 06:00 until the 25 at 15:00 UTC


250520Z 2506/2515 25006KT 5000 BR BKN006
TEMPO 2506/2509 23003KT 2000 -SN BKN003
BECMG 2509/2511 25007KT 7000 NSW BKN012 BY ETGL



MET'MAP, your aeronautical weather chart ! - Copyright ORBIFLY December 2007 - Disclaimer

ORBIFLY MET'MAP TEAM :

Programming & Development : Alexandra Zaïnal
Concept & original design : Baudouin d'Aumeries
Assistance for programming : Marc-Olivier Méhu
Technical & hardware support : Manuel Goepfert

Contact : metmap@orbifly.com




SOURCES & CREDITS :

   NOAA